GFSCGP_prec_precacc12_132.txt.gz
Total_Precipitation_Accumulation
0.00 0.00 0.00 0.00 0.00 0.00 0.00 0.01 0.05 0.08 0.12 0.24 0.18 0.28 0.24 0.21 0.38 0.14 0.04 0.01 0.00 0.00 0.00 0.00 0.00 0.00 0.00 0.00 0.00 0.02 0.08 0.05 0.00 0.00 0.00 0.00 0.00 0.00 0.00 0.00 0.00 0.04 0.10 0.05
0.00 0.00 0.00 0.00 0.00 0.00 0.00 0.05 0.18 0.16 0.04 0.07 0.09 0.13 0.33 0.20 0.29 0.10 0.03 0.01 0.00 0.00 0.00 0.00 0.00 0.00 0.00 0.00 0.00 0.05 0.08 0.05 0.00 0.00 0.00 0.00 0.00 0.01 0.03 0.03 0.02 0.02 0.05 0.04
0.00 0.00 0.00 0.00 0.00 0.00 0.01 0.03 0.10 0.19 0.09 0.04 0.06 0.06 0.16 0.19 0.17 0.10 0.02 0.00 0.00 0.00 0.00 0.00 0.00 0.00 0.00 0.00 0.00 0.00 0.01 0.04 0.02 0.00 0.00 0.00 0.05 0.09 0.11 0.09 0.04 0.02 0.05 0.02
0.00 0.00 0.00 0.00 0.00 0.00 0.00 0.01 0.02 0.13 0.11 0.12 0.08 0.08 0.05 0.14 0.07 0.06 0.02 0.00 0.00 0.00 0.00 0.00 0.00 0.00 0.00 0.00 0.00 0.00 0.01 0.03 0.04 0.00 0.00 0.02 0.01 0.04 0.05 0.03 0.05 0.01 0.03 0.04
0.00 0.00 0.00 0.00 0.00 0.00 0.00 0.01 0.05 0.09 0.14 0.07 0.03 0.04 0.03 0.07 0.13 0.02 0.01 0.00 0.00 0.00 0.00 0.00 0.00 0.00 0.00 0.00 0.00 0.00 0.00 0.04 0.01 0.04 0.03 0.05 0.00 0.01 0.02 0.04 0.06 0.05 0.05 0.09
0.00 0.00 0.00 0.00 0.00 0.00 0.00 0.03 0.12 0.10 0.06 0.03 0.02 0.02 0.01 0.00 0.05 0.03 0.01 0.00 0.00 0.00 0.00 0.00 0.00 0.00 0.00 0.00 0.00 0.00 0.00 0.00 0.05 0.09 0.07 0.04 0.03 0.02 0.04 0.04 0.02 0.01 0.01 0.03
0.00 0.00 0.00 0.00 0.00 0.00 0.00 0.01 0.06 0.07 0.04 0.03 0.02 0.05 0.02 0.00 0.00 0.03 0.02 0.00 0.02 0.00 0.00 0.00 0.00 0.00 0.00 0.00 0.00 0.00 0.00 0.00 0.01 0.01 0.02 0.03 0.04 0.05 0.08 0.09 0.05 0.05 0.01 0.00
0.00 0.00 0.00 0.00 0.00 0.00 0.00 0.00 0.02 0.06 0.07 0.07 0.03 0.07 0.01 0.00 0.00 0.00 0.00 0.00 0.03 0.00 0.00 0.00 0.00 0.00 0.00 0.00 0.00 0.00 0.00 0.00 0.00 0.00 0.00 0.02 0.12 0.08 0.02 0.04 0.04 0.01 0.00 0.00
0.00 0.00 0.00 0.00 0.00 0.00 0.00 0.01 0.04 0.03 0.04 0.04 0.02 0.00 0.00 0.00 0.00 0.00 0.00 0.00 0.02 0.00 0.00 0.00 0.00 0.00 0.00 0.00 0.00 0.00 0.00 0.00 0.00 0.00 0.00 0.00 0.03 0.01 0.02 0.06 0.10 0.06 0.03 0.00
0.00 0.00 0.00 0.00 0.00 0.01 0.00 0.01 0.03 0.03 0.12 0.06 0.00 0.00 0.00 0.00 0.00 0.00 0.00 0.00 0.00 0.01 0.01 0.01 0.01 0.00 0.00 0.00 0.00 0.00 0.00 0.00 0.00 0.00 0.00 0.00 0.00 0.00 0.06 0.10 0.07 0.06 0.19 0.12
0.00 0.00 0.01 0.00 0.02 0.02 0.01 0.00 0.01 0.01 0.05 0.11 0.02 0.01 0.00 0.00 0.00 0.00 0.00 0.00 0.00 0.01 0.00 0.00 0.00 0.01 0.01 0.00 0.00 0.00 0.00 0.00 0.00 0.00 0.00 0.00 0.00 0.00 0.02 0.04 0.06 0.11 0.14 0.12
0.00 0.00 0.00 0.00 0.01 0.01 0.02 0.03 0.01 0.00 0.01 0.01 0.02 0.00 0.00 0.00 0.00 0.00 0.00 0.00 0.00 0.03 0.01 0.01 0.01 0.01 0.02 0.00 0.00 0.00 0.00 0.00 0.00 0.00 0.00 0.00 0.00 0.00 0.00 0.00 0.01 0.05 0.16 0.12
0.00 0.00 0.01 0.04 0.02 0.01 0.00 0.00 0.00 0.00 0.04 0.02 0.00 0.00 0.00 0.00 0.00 0.00 0.00 0.00 0.01 0.08 0.06 0.06 0.03 0.02 0.00 0.00 0.00 0.00 0.00 0.00 0.00 0.00 0.00 0.00 0.00 0.00 0.00 0.00 0.04 0.06 0.08 0.04
0.00 0.00 0.00 0.01 0.02 0.01 0.00 0.00 0.00 0.00 0.00 0.00 0.00 0.00 0.00 0.00 0.00 0.00 0.00 0.00 0.00 0.05 0.08 0.06 0.07 0.03 0.04 0.00 0.00 0.00 0.00 0.00 0.00 0.00 0.00 0.00 0.00 0.00 0.00 0.00 0.00 0.04 0.07 0.00
0.00 0.00 0.00 0.00 0.00 0.00 0.00 0.00 0.00 0.00 0.00 0.01 0.00 0.00 0.00 0.01 0.01 0.02 0.06 0.03 0.00 0.08 0.12 0.18 0.17 0.12 0.08 0.03 0.00 0.00 0.01 0.07 0.03 0.00 0.01 0.04 0.04 0.01 0.00 0.01 0.06 0.03 0.04 0.02
0.00 0.00 0.00 0.00 0.00 0.00 0.00 0.00 0.00 0.00 0.00 0.01 0.01 0.00 0.01 0.04 0.04 0.05 0.11 0.12 0.09 0.13 0.18 0.25 0.41 0.56 0.31 0.11 0.08 0.03 0.00 0.02 0.05 0.06 0.08 0.15 0.14 0.17 0.16 0.16 0.09 0.17 0.20 0.16
0.00 0.00 0.00 0.00 0.00 0.00 0.00 0.00 0.00 0.00 0.00 0.00 0.01 0.02 0.00 0.01 0.05 0.06 0.11 0.20 0.31 0.31 0.29 0.22 0.13 0.21 0.38 0.37 0.30 0.17 0.09 0.09 0.20 0.32 0.30 0.28 0.19 0.23 0.29 0.36 0.38 0.35 0.22 0.21
0.00 0.00 0.00 0.00 0.00 0.00 0.00 0.00 0.00 0.00 0.00 0.00 0.00 0.00 0.00 0.01 0.02 0.06 0.06 0.08 0.25 0.35 0.32 0.33 0.19 0.30 0.31 0.28 0.36 0.31 0.31 0.30 0.35 0.39 0.40 0.37 0.36 0.31 0.29 0.32 0.24 0.16 0.08 0.05
0.00 0.00 0.00 0.00 0.00 0.00 0.00 0.00 0.00 0.00 0.00 0.00 0.00 0.00 0.00 0.01 0.01 0.02 0.04 0.05 0.03 0.09 0.10 0.20 0.33 0.41 0.46 0.37 0.54 0.53 0.60 0.55 0.59 0.58 0.45 0.34 0.42 0.68 0.57 0.35 0.25 0.25 0.19 0.09
0.00 0.00 0.00 0.00 0.00 0.00 0.00 0.00 0.00 0.00 0.00 0.00 0.00 0.00 0.00 0.00 0.01 0.01 0.00 0.00 0.01 0.02 0.05 0.04 0.05 0.14 0.36 0.84 0.89 1.14 1.31 1.29 0.83 0.72 0.71 0.52 0.48 0.55 0.86 1.18 1.06 0.76 0.60 0.51
0.00 0.00 0.00 0.00 0.00 0.00 0.00 0.00 0.00 0.00 0.00 0.00 0.00 0.00 0.00 0.00 0.00 0.00 0.00 0.00 0.00 0.00 0.00 0.01 0.01 0.03 0.13 0.30 0.57 0.84 0.77 1.04 1.45 1.34 1.16 1.06 0.93 0.83 0.71 0.60 0.60 0.63 0.49 0.35
0.00 0.00 0.00 0.00 0.00 0.00 0.00 0.00 0.00 0.00 0.00 0.00 0.00 0.01 0.00 0.00 0.00 0.00 0.00 0.00 0.00 0.00 0.00 0.00 0.01 0.03 0.06 0.14 0.35 0.50 0.44 0.64 1.25 1.55 1.82 2.18 2.11 1.87 1.25 0.92 0.85 0.85 0.72 0.58
0.00 0.00 0.00 0.00 0.00 0.00 0.00 0.00 0.00 0.00 0.00 0.00 0.00 0.01 0.00 0.00 0.00 0.00 0.00 0.00 0.00 0.00 0.00 0.00 0.01 0.02 0.07 0.13 0.16 0.28 0.43 0.56 0.48 0.75 1.06 1.29 1.80 1.82 1.22 0.84 0.78 0.81 0.84 0.70
0.00 0.00 0.00 0.00 0.00 0.00 0.00 0.00 0.00 0.00 0.00 0.00 0.00 0.00 0.00 0.00 0.00 0.00 0.00 0.00 0.00 0.00 0.00 0.00 0.00 0.01 0.03 0.09 0.15 0.17 0.19 0.17 0.11 0.13 0.29 0.27 0.29 0.47 0.46 0.38 0.31 0.30 0.30 0.31
0.00 0.00 0.00 0.00 0.00 0.00 0.00 0.00 0.00 0.00 0.00 0.00 0.00 0.00 0.00 0.00 0.00 0.00 0.00 0.00 0.00 0.00 0.00 0.00 0.00 0.00 0.01 0.04 0.10 0.08 0.11 0.16 0.13 0.11 0.08 0.17 0.25 0.39 0.50 0.60 0.52 0.28 0.15 0.15
0.00 0.00 0.00 0.00 0.00 0.00 0.00 0.00 0.00 0.00 0.00 0.00 0.00 0.00 0.00 0.00 0.00 0.00 0.00 0.00 0.00 0.00 0.00 0.00 0.00 0.00 0.00 0.00 0.02 0.05 0.06 0.11 0.08 0.08 0.06 0.08 0.07 0.08 0.16 0.19 0.40 0.53 0.64 0.44

GFSCGP_prec_precacc12_135.txt.gz
Total_Precipitation_Accumulation
0.00 0.00 0.00 0.00 0.00 0.00 0.00 0.00 0.02 0.07 0.03 0.06 0.10 0.17 0.19 0.12 0.27 0.14 0.06 0.02 0.00 0.00 0.00 0.00 0.00 0.00 0.00 0.00 0.00 0.03 0.15 0.14 0.00 0.00 0.00 0.00 0.00 0.00 0.00 0.00 0.00 0.03 0.11 0.07
0.00 0.00 0.00 0.00 0.00 0.00 0.00 0.02 0.04 0.11 0.03 0.03 0.04 0.03 0.17 0.22 0.27 0.10 0.03 0.02 0.00 0.00 0.01 0.00 0.00 0.00 0.00 0.00 0.00 0.10 0.16 0.12 0.02 0.00 0.00 0.00 0.00 0.00 0.02 0.01 0.00 0.02 0.04 0.04
0.00 0.00 0.00 0.00 0.00 0.00 0.01 0.02 0.03 0.07 0.07 0.03 0.05 0.05 0.02 0.11 0.22 0.13 0.02 0.01 0.00 0.00 0.02 0.00 0.00 0.00 0.00 0.00 0.00 0.01 0.02 0.07 0.04 0.00 0.00 0.01 0.07 0.09 0.10 0.07 0.02 0.01 0.04 0.01
0.00 0.00 0.00 0.00 0.00 0.00 0.00 0.00 0.00 0.06 0.07 0.09 0.08 0.10 0.07 0.04 0.06 0.08 0.02 0.00 0.00 0.00 0.00 0.00 0.00 0.00 0.00 0.00 0.00 0.00 0.02 0.06 0.05 0.01 0.00 0.02 0.01 0.02 0.04 0.03 0.04 0.00 0.00 0.03
0.00 0.00 0.00 0.00 0.00 0.00 0.00 0.00 0.02 0.03 0.07 0.05 0.03 0.06 0.07 0.02 0.07 0.01 0.00 0.00 0.00 0.00 0.00 0.00 0.00 0.00 0.00 0.00 0.00 0.00 0.01 0.07 0.02 0.06 0.08 0.06 0.00 0.00 0.01 0.02 0.05 0.04 0.01 0.08
0.00 0.00 0.00 0.00 0.00 0.00 0.00 0.02 0.09 0.06 0.04 0.03 0.01 0.02 0.13 0.05 0.03 0.02 0.00 0.00 0.00 0.00 0.00 0.00 0.00 0.00 0.00 0.00 0.00 0.00 0.00 0.00 0.06 0.10 0.11 0.07 0.03 0.03 0.03 0.02 0.01 0.00 0.00 0.02
0.00 0.00 0.00 0.00 0.00 0.00 0.00 0.01 0.06 0.06 0.03 0.02 0.02 0.03 0.06 0.03 0.00 0.00 0.01 0.00 0.00 0.00 0.00 0.00 0.00 0.00 0.00 0.00 0.00 0.00 0.00 0.00 0.01 0.01 0.02 0.03 0.05 0.06 0.08 0.06 0.02 0.01 0.00 0.00
0.00 0.00 0.00 0.00 0.00 0.00 0.00 0.00 0.02 0.06 0.07 0.10 0.05 0.05 0.04 0.00 0.00 0.00 0.00 0.00 0.00 0.01 0.00 0.00 0.00 0.00 0.00 0.00 0.00 0.00 0.00 0.00 0.00 0.00 0.00 0.06 0.15 0.10 0.02 0.03 0.03 0.01 0.00 0.00
0.00 0.00 0.00 0.00 0.00 0.00 0.00 0.01 0.04 0.03 0.04 0.08 0.07 0.01 0.02 0.00 0.00 0.00 0.00 0.00 0.00 0.00 0.00 0.00 0.00 0.00 0.00 0.00 0.00 0.00 0.00 0.00 0.00 0.00 0.00 0.05 0.09 0.01 0.02 0.08 0.10 0.05 0.01 0.00
0.00 0.00 0.00 0.00 0.00 0.01 0.00 0.01 0.03 0.03 0.15 0.11 0.10 0.17 0.07 0.00 0.00 0.00 0.00 0.00 0.00 0.00 0.00 0.00 0.00 0.00 0.00 0.00 0.00 0.00 0.00 0.00 0.00 0.00 0.00 0.00 0.00 0.00 0.08 0.12 0.10 0.06 0.17 0.11
0.00 0.00 0.01 0.00 0.02 0.03 0.01 0.00 0.01 0.01 0.06 0.19 0.12 0.19 0.01 0.00 0.00 0.00 0.00 0.00 0.00 0.01 0.00 0.00 0.00 0.01 0.01 0.00 0.00 0.00 0.00 0.00 0.00 0.00 0.00 0.00 0.00 0.00 0.03 0.05 0.03 0.09 0.14 0.12
0.00 0.00 0.00 0.00 0.02 0.09 0.11 0.06 0.05 0.01 0.02 0.06 0.13 0.20 0.03 0.00 0.00 0.00 0.00 0.00 0.00 0.02 0.01 0.02 0.02 0.00 0.02 0.00 0.00 0.00 0.00 0.00 0.00 0.00 0.00 0.00 0.00 0.00 0.00 0.00 0.01 0.05 0.19 0.12
0.00 0.00 0.01 0.03 0.02 0.01 0.00 0.02 0.17 0.14 0.13 0.04 0.05 0.03 0.01 0.00 0.00 0.00 0.00 0.00 0.01 0.07 0.07 0.10 0.16 0.07 0.01 0.00 0.00 0.00 0.00 0.00 0.00 0.00 0.00 0.00 0.00 0.00 0.00 0.00 0.02 0.04 0.13 0.07
0.00 0.00 0.00 0.03 0.06 0.03 0.02 0.00 0.00 0.05 0.07 0.02 0.01 0.02 0.14 0.01 0.00 0.00 0.00 0.00 0.00 0.04 0.08 0.12 0.23 0.28 0.05 0.00 0.03 0.01 0.00 0.00 0.00 0.00 0.00 0.00 0.00 0.00 0.00 0.00 0.00 0.03 0.08 0.05
0.00 0.00 0.00 0.00 0.00 0.00 0.02 0.02 0.00 0.00 0.00 0.02 0.27 0.02 0.12 0.02 0.01 0.02 0.06 0.03 0.00 0.03 0.19 0.32 0.28 0.18 0.09 0.03 0.02 0.05 0.03 0.01 0.02 0.02 0.01 0.00 0.00 0.00 0.00 0.00 0.00 0.00 0.01 0.01
0.00 0.00 0.00 0.00 0.00 0.00 0.00 0.00 0.00 0.00 0.00 0.01 0.18 0.22 0.02 0.03 0.04 0.05 0.10 0.12 0.12 0.11 0.18 0.32 0.49 0.66 0.37 0.13 0.07 0.10 0.09 0.07 0.08 0.11 0.12 0.13 0.07 0.11 0.13 0.10 0.08 0.04 0.02 0.03
0.00 0.00 0.00 0.00 0.01 0.00 0.00 0.00 0.00 0.00 0.00 0.00 0.03 0.16 0.02 0.01 0.05 0.06 0.07 0.12 0.21 0.34 0.34 0.22 0.13 0.21 0.38 0.37 0.25 0.11 0.10 0.09 0.18 0.23 0.28 0.26 0.13 0.16 0.21 0.28 0.29 0.21 0.13 0.12
0.00 0.00 0.00 0.00 0.01 0.03 0.01 0.00 0.00 0.00 0.00 0.00 0.00 0.00 0.00 0.01 0.02 0.04 0.05 0.06 0.16 0.24 0.38 0.28 0.18 0.17 0.22 0.21 0.31 0.22 0.14 0.13 0.26 0.37 0.38 0.37 0.33 0.27 0.27 0.29 0.24 0.20 0.17 0.22
0.00 0.00 0.00 0.00 0.00 0.00 0.00 0.00 0.00 0.00 0.00 0.00 0.00 0.00 0.00 0.00 0.00 0.03 0.02 0.02 0.02 0.09 0.12 0.30 0.51 0.24 0.33 0.20 0.31 0.43 0.47 0.40 0.35 0.45 0.37 0.38 0.42 0.62 0.54 0.32 0.30 0.36 0.30 0.23
0.00 0.00 0.00 0.00 0.00 0.00 0.01 0.00 0.00 0.00 0.00 0.00 0.00 0.00 0.00 0.00 0.02 0.08 0.00 0.00 0.01 0.01 0.05 0.04 0.08 0.14 0.26 0.30 0.28 0.52 0.94 0.85 0.60 0.65 0.60 0.45 0.34 0.37 0.74 1.15 1.10 0.84 0.71 0.55
0.00 0.00 0.00 0.00 0.00 0.00 0.00 0.00 0.00 0.00 0.00 0.00 0.00 0.00 0.00 0.00 0.02 0.01 0.00 0.00 0.00 0.00 0.00 0.01 0.01 0.02 0.07 0.11 0.21 0.52 0.58 0.83 1.00 0.88 0.90 0.94 0.79 0.61 0.62 0.59 0.62 0.65 0.51 0.37
0.00 0.00 0.00 0.00 0.00 0.00 0.00 0.00 0.00 0.00 0.00 0.00 0.00 0.01 0.00 0.00 0.00 0.00 0.00 0.00 0.00 0.00 0.00 0.00 0.01 0.01 0.02 0.05 0.14 0.27 0.20 0.21 0.47 0.95 1.23 1.82 1.96 1.77 1.25 0.93 0.86 0.86 0.78 0.65
0.00 0.00 0.00 0.00 0.00 0.00 0.00 0.00 0.00 0.00 0.00 0.00 0.00 0.00 0.00 0.00 0.00 0.00 0.00 0.00 0.00 0.00 0.00 0.00 0.00 0.01 0.02 0.06 0.09 0.11 0.13 0.22 0.30 0.67 0.93 1.12 1.80 1.86 1.21 0.83 0.78 0.82 0.88 0.84
0.00 0.00 0.00 0.00 0.00 0.00 0.00 0.00 0.00 0.00 0.00 0.00 0.00 0.00 0.00 0.00 0.00 0.00 0.00 0.00 0.00 0.00 0.00 0.00 0.01 0.01 0.02 0.07 0.15 0.16 0.17 0.24 0.12 0.13 0.29 0.28 0.29 0.38 0.38 0.33 0.29 0.29 0.30 0.32
0.00 0.00 0.00 0.00 0.00 0.00 0.00 0.00 0.00 0.00 0.00 0.00 0.00 0.00 0.00 0.00 0.00 0.00 0.00 0.00 0.00 0.00 0.00 0.00 0.00 0.00 0.01 0.05 0.12 0.11 0.12 0.22 0.15 0.15 0.11 0.18 0.25 0.38 0.48 0.57 0.48 0.26 0.15 0.15
0.00 0.00 0.00 0.00 0.00 0.00 0.00 0.00 0.00 0.00 0.00 0.00 0.00 0.00 0.00 0.00 0.00 0.00 0.00 0.00 0.00 0.00 0.00 0.00 0.00 0.00 0.00 0.01 0.03 0.07 0.08 0.14 0.10 0.09 0.06 0.08 0.06 0.08 0.17 0.18 0.37 0.51 0.65 0.45

GFSCGP_prec_precacc12_138.txt.gz
Total_Precipitation_Accumulation
0.00 0.00 0.00 0.00 0.00 0.00 0.00 0.00 0.03 0.14 0.05 0.05 0.05 0.15 0.06 0.05 0.21 0.09 0.06 0.02 0.02 0.04 0.01 0.00 0.01 0.00 0.00 0.00 0.02 0.07 0.16 0.16 0.01 0.00 0.00 0.00 0.00 0.00 0.00 0.00 0.00 0.10 0.25 0.07
0.00 0.00 0.00 0.00 0.00 0.00 0.00 0.01 0.02 0.07 0.03 0.02 0.01 0.02 0.06 0.08 0.12 0.05 0.03 0.05 0.03 0.01 0.04 0.01 0.01 0.00 0.00 0.00 0.00 0.13 0.20 0.14 0.03 0.00 0.00 0.00 0.00 0.00 0.01 0.01 0.00 0.03 0.07 0.04
0.00 0.00 0.00 0.00 0.00 0.00 0.00 0.01 0.02 0.04 0.04 0.01 0.01 0.04 0.02 0.06 0.13 0.08 0.01 0.02 0.01 0.00 0.07 0.08 0.00 0.00 0.00 0.00 0.00 0.01 0.05 0.08 0.05 0.00 0.00 0.01 0.07 0.09 0.10 0.07 0.02 0.01 0.03 0.01
0.00 0.00 0.00 0.00 0.00 0.00 0.00 0.00 0.00 0.01 0.03 0.07 0.04 0.08 0.07 0.01 0.04 0.08 0.02 0.00 0.00 0.01 0.13 0.06 0.00 0.00 0.00 0.00 0.00 0.00 0.04 0.10 0.10 0.02 0.00 0.02 0.01 0.02 0.03 0.03 0.04 0.00 0.00 0.01
0.00 0.00 0.00 0.00 0.00 0.00 0.00 0.00 0.01 0.01 0.02 0.01 0.02 0.05 0.09 0.08 0.06 0.05 0.01 0.00 0.00 0.01 0.04 0.03 0.03 0.00 0.00 0.00 0.00 0.00 0.02 0.13 0.08 0.11 0.10 0.09 0.00 0.00 0.01 0.02 0.05 0.04 0.01 0.05
0.00 0.00 0.00 0.00 0.00 0.00 0.00 0.01 0.02 0.04 0.03 0.01 0.01 0.02 0.18 0.32 0.16 0.01 0.00 0.00 0.00 0.00 0.00 0.01 0.06 0.00 0.00 0.00 0.00 0.00 0.01 0.05 0.10 0.15 0.13 0.08 0.05 0.03 0.04 0.02 0.01 0.00 0.00 0.01
0.00 0.00 0.00 0.00 0.00 0.00 0.00 0.00 0.02 0.04 0.03 0.02 0.03 0.04 0.11 0.06 0.01 0.00 0.03 0.00 0.00 0.01 0.00 0.01 0.01 0.00 0.00 0.00 0.00 0.00 0.00 0.01 0.03 0.02 0.03 0.03 0.07 0.08 0.12 0.07 0.01 0.01 0.00 0.00
0.00 0.00 0.00 0.00 0.00 0.00 0.00 0.00 0.01 0.07 0.10 0.14 0.06 0.07 0.06 0.00 0.00 0.00 0.01 0.02 0.00 0.01 0.01 0.01 0.01 0.01 0.00 0.00 0.00 0.00 0.00 0.00 0.01 0.02 0.04 0.10 0.17 0.13 0.08 0.04 0.03 0.01 0.00 0.00
0.00 0.00 0.00 0.00 0.00 0.00 0.00 0.00 0.01 0.03 0.04 0.09 0.08 0.05 0.03 0.00 0.00 0.00 0.00 0.03 0.00 0.00 0.00 0.01 0.00 0.00 0.00 0.00 0.00 0.00 0.00 0.00 0.00 0.00 0.04 0.08 0.10 0.03 0.03 0.10 0.11 0.04 0.01 0.01
0.00 0.00 0.00 0.00 0.00 0.00 0.00 0.00 0.02 0.03 0.14 0.13 0.19 0.51 0.26 0.09 0.20 0.00 0.00 0.01 0.00 0.00 0.00 0.01 0.00 0.03 0.00 0.00 0.00 0.00 0.00 0.00 0.00 0.00 0.00 0.00 0.00 0.00 0.12 0.18 0.21 0.07 0.17 0.12
0.00 0.00 0.00 0.00 0.02 0.03 0.01 0.00 0.01 0.01 0.07 0.21 0.23 0.51 0.58 0.16 0.05 0.01 0.00 0.00 0.00 0.01 0.00 0.00 0.00 0.01 0.03 0.00 0.00 0.00 0.00 0.00 0.00 0.00 0.00 0.01 0.01 0.00 0.08 0.11 0.10 0.12 0.16 0.14
0.00 0.00 0.00 0.01 0.03 0.09 0.12 0.07 0.06 0.02 0.16 0.16 0.19 0.37 0.35 0.16 0.13 0.00 0.00 0.00 0.01 0.01 0.01 0.02 0.03 0.02 0.02 0.01 0.00 0.00 0.00 0.00 0.00 0.00 0.00 0.00 0.01 0.01 0.02 0.02 0.02 0.08 0.16 0.12
0.00 0.00 0.00 0.01 0.05 0.02 0.00 0.02 0.17 0.14 0.14 0.06 0.08 0.07 0.05 0.09 0.10 0.01 0.00 0.00 0.00 0.00 0.03 0.07 0.15 0.12 0.12 0.09 0.01 0.00 0.00 0.00 0.00 0.00 0.00 0.00 0.00 0.00 0.00 0.02 0.02 0.06 0.11 0.09
0.00 0.00 0.00 0.02 0.07 0.07 0.02 0.02 0.00 0.05 0.09 0.03 0.01 0.04 0.26 0.34 0.30 0.06 0.00 0.00 0.00 0.00 0.01 0.09 0.24 0.78 0.57 0.29 0.17 0.13 0.02 0.00 0.00 0.00 0.00 0.00 0.00 0.00 0.00 0.00 0.00 0.07 0.11 0.11
0.00 0.00 0.00 0.00 0.00 0.00 0.02 0.02 0.02 0.01 0.01 0.03 0.27 0.04 0.60 0.30 0.07 0.01 0.02 0.02 0.01 0.02 0.17 0.29 0.26 0.40 0.79 0.81 0.68 0.73 0.54 0.11 0.03 0.02 0.00 0.00 0.00 0.00 0.00 0.02 0.03 0.03 0.10 0.11
0.00 0.00 0.00 0.00 0.00 0.00 0.00 0.00 0.01 0.04 0.12 0.05 0.23 0.30 0.16 0.05 0.02 0.01 0.02 0.11 0.14 0.10 0.14 0.27 0.48 0.70 0.62 0.53 0.39 0.52 0.97 1.10 0.34 0.17 0.13 0.13 0.13 0.16 0.16 0.14 0.12 0.09 0.08 0.08
0.00 0.00 0.00 0.00 0.01 0.00 0.00 0.00 0.00 0.00 0.00 0.00 0.03 0.42 0.31 0.27 0.05 0.03 0.05 0.13 0.22 0.28 0.23 0.18 0.10 0.24 0.42 0.49 0.40 0.22 0.21 0.47 0.38 0.33 0.29 0.18 0.13 0.18 0.26 0.32 0.37 0.20 0.17 0.23
0.00 0.00 0.00 0.00 0.01 0.04 0.03 0.05 0.01 0.01 0.00 0.00 0.01 0.14 0.28 0.13 0.03 0.03 0.04 0.05 0.16 0.22 0.31 0.18 0.16 0.15 0.21 0.21 0.31 0.25 0.13 0.06 0.13 0.22 0.20 0.23 0.23 0.20 0.22 0.32 0.32 0.27 0.28 0.30
0.00 0.00 0.00 0.00 0.00 0.00 0.01 0.04 0.01 0.00 0.00 0.00 0.01 0.05 0.25 0.06 0.05 0.04 0.02 0.02 0.02 0.09 0.12 0.34 0.56 0.23 0.25 0.18 0.18 0.29 0.29 0.22 0.17 0.32 0.31 0.32 0.32 0.51 0.52 0.37 0.37 0.43 0.35 0.27
0.00 0.00 0.00 0.00 0.00 0.00 0.01 0.01 0.00 0.00 0.00 0.00 0.04 0.04 0.42 0.09 0.12 0.18 0.00 0.00 0.01 0.01 0.05 0.04 0.08 0.12 0.15 0.15 0.12 0.35 0.50 0.43 0.36 0.39 0.43 0.38 0.36 0.47 0.73 1.14 1.10 0.88 0.80 0.63
0.00 0.00 0.00 0.00 0.00 0.00 0.00 0.01 0.00 0.00 0.01 0.01 0.01 0.00 0.00 0.01 0.04 0.02 0.00 0.00 0.00 0.00 0.00 0.01 0.01 0.03 0.07 0.11 0.20 0.50 0.44 0.34 0.46 0.37 0.39 0.49 0.53 0.53 0.52 0.45 0.48 0.58 0.50 0.39
0.00 0.00 0.00 0.00 0.00 0.01 0.00 0.00 0.00 0.00 0.00 0.00 0.00 0.00 0.00 0.00 0.00 0.00 0.00 0.00 0.00 0.00 0.00 0.00 0.00 0.00 0.01 0.03 0.12 0.19 0.21 0.21 0.27 0.42 0.59 0.87 1.10 1.09 0.99 0.84 0.76 0.76 0.75 0.66
0.00 0.00 0.00 0.00 0.01 0.01 0.00 0.00 0.00 0.00 0.00 0.00 0.00 0.00 0.00 0.00 0.00 0.00 0.00 0.00 0.00 0.00 0.00 0.00 0.00 0.00 0.01 0.03 0.02 0.06 0.07 0.08 0.20 0.34 0.59 0.62 1.18 1.39 1.21 0.91 0.80 0.80 0.88 0.85
0.00 0.00 0.00 0.00 0.00 0.00 0.00 0.00 0.00 0.00 0.00 0.00 0.00 0.00 0.00 0.00 0.00 0.00 0.00 0.00 0.00 0.00 0.00 0.00 0.00 0.00 0.01 0.02 0.09 0.09 0.12 0.17 0.06 0.08 0.06 0.11 0.15 0.25 0.29 0.31 0.28 0.26 0.28 0.31
0.00 0.00 0.01 0.00 0.00 0.00 0.00 0.00 0.00 0.00 0.00 0.00 0.00 0.00 0.00 0.00 0.00 0.00 0.00 0.00 0.00 0.00 0.00 0.00 0.00 0.00 0.00 0.03 0.10 0.11 0.14 0.21 0.07 0.08 0.08 0.09 0.07 0.16 0.29 0.40 0.32 0.19 0.12 0.14
0.00 0.00 0.00 0.00 0.00 0.01 0.00 0.00 0.00 0.00 0.00 0.00 0.00 0.00 0.00 0.00 0.00 0.00 0.00 0.00 0.00 0.00 0.00 0.00 0.00 0.00 0.00 0.01 0.03 0.08 0.12 0.18 0.13 0.10 0.06 0.07 0.05 0.07 0.14 0.16 0.32 0.43 0.58 0.37

GFSCGP_prec_precacc12_141.txt.gz
Total_Precipitation_Accumulation
0.00 0.00 0.00 0.00 0.00 0.00 0.00 0.00 0.02 0.17 0.22 0.11 0.05 0.12 0.05 0.02 0.09 0.06 0.05 0.02 0.03 0.04 0.02 0.01 0.03 0.01 0.00 0.00 0.02 0.07 0.16 0.16 0.01 0.00 0.00 0.00 0.00 0.00 0.00 0.00 0.00 0.10 0.25 0.10
0.00 0.00 0.00 0.00 0.00 0.00 0.00 0.00 0.01 0.12 0.09 0.06 0.01 0.02 0.05 0.06 0.10 0.04 0.03 0.05 0.03 0.04 0.09 0.01 0.01 0.01 0.00 0.00 0.00 0.13 0.20 0.15 0.03 0.00 0.00 0.00 0.00 0.00 0.00 0.00 0.00 0.04 0.07 0.04
0.00 0.00 0.00 0.00 0.00 0.00 0.00 0.00 0.00 0.05 0.03 0.01 0.01 0.04 0.02 0.04 0.09 0.06 0.01 0.02 0.01 0.01 0.08 0.10 0.03 0.00 0.00 0.00 0.00 0.01 0.05 0.10 0.06 0.00 0.00 0.02 0.07 0.07 0.05 0.02 0.00 0.01 0.03 0.00
0.00 0.00 0.00 0.00 0.00 0.00 0.00 0.00 0.00 0.00 0.01 0.04 0.03 0.07 0.08 0.04 0.05 0.05 0.02 0.00 0.00 0.01 0.14 0.08 0.01 0.01 0.00 0.00 0.00 0.00 0.04 0.10 0.10 0.03 0.00 0.02 0.01 0.00 0.00 0.01 0.01 0.00 0.00 0.00
0.00 0.00 0.00 0.00 0.00 0.00 0.00 0.00 0.00 0.00 0.01 0.01 0.01 0.04 0.13 0.29 0.17 0.05 0.01 0.00 0.00 0.01 0.10 0.06 0.03 0.02 0.01 0.00 0.00 0.00 0.02 0.13 0.09 0.12 0.11 0.09 0.00 0.00 0.00 0.02 0.04 0.02 0.01 0.01
0.00 0.00 0.00 0.00 0.00 0.00 0.00 0.00 0.00 0.01 0.01 0.01 0.01 0.02 0.29 0.43 0.19 0.01 0.00 0.00 0.00 0.00 0.00 0.03 0.06 0.01 0.03 0.00 0.00 0.00 0.01 0.06 0.11 0.15 0.14 0.08 0.06 0.04 0.03 0.03 0.01 0.00 0.01 0.00
0.00 0.00 0.00 0.00 0.00 0.00 0.00 0.00 0.00 0.01 0.02 0.02 0.03 0.04 0.13 0.07 0.01 0.00 0.03 0.00 0.00 0.01 0.00 0.03 0.03 0.02 0.02 0.03 0.02 0.00 0.00 0.01 0.03 0.02 0.03 0.04 0.08 0.08 0.11 0.06 0.01 0.00 0.01 0.00
0.00 0.00 0.00 0.00 0.00 0.00 0.00 0.00 0.00 0.05 0.10 0.13 0.06 0.10 0.13 0.06 0.02 0.02 0.02 0.02 0.00 0.01 0.01 0.01 0.03 0.01 0.01 0.00 0.00 0.00 0.00 0.00 0.01 0.02 0.04 0.13 0.18 0.14 0.08 0.05 0.03 0.01 0.00 0.01
0.00 0.00 0.00 0.00 0.00 0.00 0.00 0.00 0.00 0.01 0.02 0.07 0.10 0.09 0.05 0.03 0.01 0.01 0.03 0.05 0.00 0.00 0.00 0.02 0.01 0.01 0.00 0.00 0.00 0.00 0.00 0.00 0.00 0.00 0.04 0.09 0.11 0.05 0.03 0.10 0.11 0.05 0.01 0.01
0.00 0.00 0.00 0.00 0.00 0.00 0.00 0.00 0.00 0.00 0.09 0.12 0.26 0.59 0.28 0.10 0.42 0.10 0.07 0.06 0.00 0.00 0.00 0.01 0.00 0.04 0.01 0.00 0.00 0.00 0.00 0.00 0.00 0.00 0.00 0.00 0.00 0.00 0.13 0.19 0.21 0.07 0.14 0.10
0.00 0.00 0.00 0.00 0.01 0.02 0.00 0.00 0.00 0.01 0.06 0.22 0.31 0.55 0.59 0.19 0.47 0.39 0.23 0.07 0.02 0.00 0.00 0.01 0.01 0.01 0.05 0.01 0.00 0.00 0.00 0.00 0.00 0.00 0.00 0.01 0.01 0.00 0.08 0.11 0.10 0.12 0.16 0.15
0.00 0.00 0.00 0.01 0.03 0.08 0.11 0.07 0.05 0.02 0.16 0.21 0.24 0.40 0.36 0.20 0.33 0.48 1.04 0.42 0.24 0.10 0.02 0.06 0.04 0.02 0.03 0.12 0.06 0.07 0.01 0.00 0.00 0.00 0.00 0.00 0.01 0.02 0.03 0.02 0.02 0.08 0.14 0.10
0.00 0.00 0.00 0.01 0.05 0.02 0.00 0.02 0.17 0.14 0.14 0.07 0.11 0.11 0.05 0.11 0.49 0.75 0.86 0.68 0.22 0.29 0.07 0.10 0.18 0.14 0.14 0.20 0.30 0.17 0.08 0.02 0.01 0.00 0.00 0.00 0.00 0.00 0.01 0.03 0.02 0.06 0.10 0.08
0.00 0.00 0.00 0.02 0.06 0.06 0.02 0.02 0.00 0.05 0.09 0.03 0.01 0.06 0.26 0.34 0.39 0.22 0.18 0.18 0.09 0.04 0.01 0.11 0.29 0.84 0.64 0.63 0.69 0.99 0.43 0.15 0.10 0.02 0.00 0.00 0.00 0.00 0.00 0.00 0.01 0.08 0.10 0.13
0.00 0.00 0.00 0.00 0.00 0.00 0.02 0.02 0.02 0.01 0.01 0.03 0.29 0.05 0.60 0.29 0.07 0.01 0.03 0.11 0.07 0.04 0.13 0.21 0.16 0.34 0.82 1.05 1.43 1.50 1.11 0.41 0.28 0.11 0.04 0.01 0.00 0.00 0.01 0.03 0.04 0.06 0.12 0.14
0.00 0.00 0.00 0.00 0.00 0.00 0.00 0.00 0.01 0.04 0.12 0.06 0.23 0.30 0.16 0.04 0.02 0.02 0.03 0.16 0.24 0.16 0.09 0.14 0.23 0.35 0.47 0.54 0.64 0.97 1.66 2.04 1.27 0.70 0.27 0.17 0.14 0.18 0.18 0.16 0.14 0.10 0.09 0.09
0.00 0.00 0.00 0.00 0.01 0.00 0.00 0.00 0.01 0.00 0.01 0.01 0.03 0.42 0.31 0.30 0.05 0.04 0.04 0.08 0.21 0.31 0.26 0.18 0.06 0.17 0.27 0.37 0.42 0.31 0.50 1.23 1.46 1.77 1.28 0.43 0.22 0.23 0.31 0.37 0.40 0.22 0.18 0.25
0.00 0.00 0.00 0.00 0.01 0.04 0.03 0.05 0.01 0.01 0.01 0.11 0.17 0.16 0.28 0.14 0.06 0.02 0.02 0.02 0.08 0.12 0.29 0.16 0.14 0.09 0.14 0.17 0.30 0.27 0.22 0.21 0.34 0.84 1.24 1.20 0.37 0.28 0.27 0.41 0.38 0.33 0.35 0.34
0.00 0.00 0.00 0.00 0.00 0.00 0.01 0.04 0.01 0.00 0.03 0.06 0.14 0.10 0.26 0.08 0.09 0.04 0.02 0.01 0.01 0.02 0.04 0.28 0.54 0.17 0.10 0.10 0.14 0.26 0.28 0.19 0.14 0.31 0.46 0.63 0.63 0.54 0.38 0.37 0.43 0.47 0.47 0.43
0.00 0.00 0.00 0.00 0.00 0.00 0.01 0.01 0.00 0.00 0.06 0.08 0.10 0.05 0.44 0.16 0.22 0.23 0.00 0.00 0.00 0.01 0.01 0.01 0.08 0.11 0.08 0.08 0.08 0.30 0.40 0.33 0.24 0.25 0.31 0.40 0.47 0.60 0.47 0.43 0.48 0.79 0.87 0.71
0.00 0.00 0.00 0.00 0.00 0.00 0.00 0.01 0.00 0.01 0.04 0.03 0.02 0.06 0.27 0.06 0.04 0.03 0.00 0.00 0.00 0.00 0.00 0.00 0.01 0.02 0.05 0.04 0.09 0.28 0.35 0.28 0.41 0.33 0.33 0.41 0.44 0.43 0.39 0.26 0.18 0.20 0.30 0.30
0.00 0.00 0.00 0.00 0.00 0.01 0.00 0.00 0.00 0.01 0.01 0.03 0.01 0.02 0.15 0.10 0.01 0.00 0.00 0.00 0.00 0.00 0.00 0.00 0.00 0.00 0.01 0.03 0.10 0.19 0.21 0.21 0.29 0.43 0.53 0.52 0.60 0.70 0.57 0.54 0.48 0.41 0.43 0.45
0.00 0.00 0.00 0.00 0.01 0.01 0.00 0.00 0.00 0.01 0.01 0.01 0.00 0.00 0.00 0.01 0.01 0.00 0.00 0.00 0.00 0.00 0.00 0.00 0.00 0.00 0.00 0.02 0.02 0.05 0.06 0.08 0.20 0.34 0.54 0.43 0.40 0.54 0.66 0.64 0.70 0.67 0.64 0.68
0.00 0.00 0.00 0.00 0.00 0.00 0.00 0.00 0.00 0.00 0.01 0.05 0.02 0.00 0.00 0.00 0.00 0.00 0.00 0.00 0.00 0.00 0.00 0.00 0.00 0.00 0.00 0.01 0.06 0.06 0.11 0.16 0.06 0.08 0.06 0.11 0.10 0.12 0.13 0.17 0.24 0.21 0.16 0.16
0.00 0.00 0.01 0.00 0.00 0.00 0.00 0.00 0.00 0.00 0.00 0.00 0.00 0.00 0.00 0.00 0.00 0.00 0.00 0.00 0.00 0.00 0.00 0.00 0.00 0.00 0.00 0.02 0.07 0.09 0.10 0.15 0.04 0.06 0.06 0.03 0.02 0.01 0.01 0.01 0.04 0.05 0.05 0.07
0.01 0.00 0.00 0.00 0.00 0.01 0.00 0.00 0.00 0.00 0.00 0.00 0.00 0.00 0.00 0.00 0.00 0.00 0.00 0.00 0.00 0.00 0.00 0.01 0.00 0.00 0.00 0.01 0.01 0.06 0.09 0.15 0.10 0.05 0.03 0.03 0.02 0.01 0.05 0.04 0.08 0.10 0.12 0.20

GFSCGP_prec_precacc12_144.txt.gz
Total_Precipitation_Accumulation
0.00 0.00 0.00 0.00 0.00 0.00 0.00 0.00 0.01 0.12 0.19 0.13 0.05 0.09 0.04 0.01 0.00 0.02 0.02 0.01 0.03 0.04 0.02 0.01 0.03 0.01 0.00 0.00 0.02 0.05 0.07 0.12 0.03 0.01 0.00 0.03 0.00 0.00 0.00 0.00 0.00 0.07 0.17 0.05
0.00 0.00 0.00 0.00 0.00 0.00 0.00 0.00 0.00 0.10 0.09 0.07 0.02 0.01 0.03 0.06 0.03 0.02 0.01 0.03 0.03 0.04 0.10 0.01 0.01 0.01 0.00 0.00 0.00 0.08 0.13 0.10 0.03 0.00 0.00 0.00 0.00 0.00 0.00 0.00 0.01 0.03 0.03 0.01
0.00 0.00 0.00 0.00 0.00 0.00 0.00 0.00 0.00 0.04 0.01 0.01 0.01 0.05 0.02 0.04 0.08 0.03 0.00 0.01 0.01 0.01 0.08 0.10 0.03 0.00 0.00 0.00 0.00 0.00 0.04 0.06 0.04 0.00 0.00 0.01 0.02 0.01 0.03 0.01 0.02 0.00 0.00 0.00
0.00 0.00 0.00 0.00 0.00 0.00 0.00 0.00 0.00 0.00 0.00 0.01 0.02 0.06 0.08 0.04 0.05 0.05 0.02 0.00 0.00 0.01 0.14 0.08 0.02 0.01 0.00 0.00 0.00 0.00 0.03 0.07 0.06 0.02 0.00 0.01 0.00 0.00 0.00 0.00 0.01 0.00 0.00 0.00
0.00 0.00 0.00 0.00 0.00 0.00 0.00 0.00 0.00 0.00 0.00 0.00 0.00 0.02 0.11 0.31 0.17 0.05 0.01 0.00 0.00 0.01 0.10 0.06 0.04 0.02 0.01 0.00 0.00 0.00 0.02 0.09 0.08 0.08 0.07 0.04 0.00 0.00 0.00 0.00 0.00 0.01 0.00 0.00
0.00 0.00 0.00 0.00 0.00 0.00 0.00 0.00 0.00 0.00 0.00 0.00 0.00 0.01 0.29 0.44 0.22 0.02 0.01 0.00 0.00 0.00 0.00 0.03 0.06 0.01 0.03 0.00 0.00 0.00 0.01 0.06 0.06 0.06 0.06 0.04 0.03 0.02 0.01 0.01 0.00 0.00 0.00 0.00
0.00 0.00 0.00 0.00 0.00 0.00 0.00 0.00 0.00 0.00 0.00 0.00 0.02 0.02 0.14 0.08 0.02 0.01 0.05 0.01 0.00 0.01 0.00 0.03 0.03 0.02 0.02 0.03 0.03 0.00 0.00 0.01 0.02 0.01 0.02 0.00 0.04 0.03 0.05 0.03 0.00 0.00 0.01 0.00
0.00 0.00 0.00 0.00 0.00 0.00 0.00 0.00 0.00 0.01 0.05 0.09 0.03 0.06 0.15 0.11 0.04 0.03 0.04 0.05 0.00 0.01 0.01 0.01 0.03 0.01 0.01 0.00 0.00 0.00 0.00 0.00 0.01 0.02 0.04 0.11 0.06 0.07 0.06 0.01 0.01 0.00 0.00 0.01
0.00 0.00 0.00 0.00 0.00 0.00 0.00 0.00 0.00 0.00 0.01 0.06 0.08 0.09 0.06 0.05 0.01 0.03 0.06 0.13 0.07 0.01 0.01 0.02 0.01 0.01 0.00 0.00 0.00 0.00 0.00 0.00 0.00 0.00 0.04 0.09 0.08 0.04 0.02 0.05 0.03 0.01 0.01 0.01
0.00 0.00 0.00 0.00 0.00 0.00 0.00 0.00 0.00 0.00 0.02 0.08 0.26 0.59 0.28 0.10 0.42 0.12 0.12 0.16 0.07 0.02 0.00 0.01 0.00 0.04 0.01 0.00 0.01 0.02 0.00 0.00 0.00 0.00 0.00 0.00 0.00 0.00 0.06 0.11 0.15 0.02 0.02 0.02
0.00 0.00 0.00 0.00 0.00 0.01 0.00 0.00 0.00 0.00 0.02 0.14 0.29 0.54 0.59 0.19 0.47 0.39 0.27 0.14 0.09 0.03 0.00 0.01 0.01 0.01 0.06 0.01 0.01 0.03 0.00 0.00 0.00 0.00 0.00 0.01 0.01 0.00 0.06 0.08 0.07 0.07 0.04 0.04
0.00 0.00 0.00 0.01 0.02 0.07 0.09 0.04 0.05 0.01 0.15 0.20 0.22 0.40 0.36 0.20 0.33 0.48 1.18 0.54 0.42 0.15 0.03 0.08 0.07 0.07 0.05 0.13 0.07 0.15 0.09 0.01 0.00 0.00 0.00 0.00 0.01 0.02 0.03 0.02 0.02 0.08 0.05 0.02
0.00 0.00 0.00 0.01 0.05 0.02 0.00 0.02 0.17 0.14 0.10 0.06 0.11 0.11 0.05 0.11 0.49 0.75 1.39 1.21 0.47 0.46 0.22 0.18 0.25 0.22 0.20 0.22 0.34 0.34 0.28 0.24 0.18 0.07 0.01 0.00 0.00 0.00 0.01 0.03 0.02 0.06 0.10 0.08
0.00 0.00 0.00 0.02 0.06 0.06 0.02 0.02 0.00 0.05 0.09 0.03 0.01 0.06 0.26 0.34 0.39 0.22 0.37 1.09 0.81 0.43 0.48 0.33 0.59 1.09 0.86 0.81 0.92 1.23 0.84 0.38 0.30 0.22 0.14 0.07 0.02 0.00 0.00 0.00 0.01 0.08 0.10 0.14
0.00 0.00 0.00 0.00 0.00 0.00 0.02 0.02 0.02 0.01 0.01 0.03 0.29 0.05 0.60 0.29 0.07 0.01 0.08 0.22 0.31 0.34 0.32 0.31 0.33 0.52 1.10 1.27 1.62 1.70 1.97 1.26 0.53 0.27 0.15 0.10 0.08 0.06 0.03 0.04 0.05 0.06 0.12 0.15
0.00 0.00 0.00 0.00 0.00 0.00 0.00 0.00 0.01 0.04 0.12 0.06 0.23 0.30 0.16 0.03 0.01 0.03 0.08 0.25 0.37 0.29 0.13 0.12 0.12 0.19 0.42 0.57 0.70 1.26 2.30 2.78 1.77 0.88 0.40 0.27 0.21 0.18 0.19 0.19 0.20 0.17 0.13 0.10
0.00 0.00 0.00 0.00 0.00 0.00 0.00 0.00 0.01 0.00 0.01 0.01 0.02 0.41 0.31 0.29 0.06 0.06 0.10 0.06 0.18 0.40 0.32 0.07 0.03 0.07 0.07 0.14 0.20 0.24 0.67 1.48 1.73 1.96 1.42 0.57 0.30 0.24 0.24 0.23 0.33 0.25 0.26 0.36
0.00 0.00 0.00 0.00 0.01 0.04 0.03 0.05 0.01 0.01 0.01 0.11 0.18 0.16 0.28 0.14 0.05 0.01 0.00 0.01 0.04 0.10 0.31 0.10 0.10 0.05 0.03 0.04 0.06 0.09 0.18 0.26 0.44 0.94 1.34 1.36 0.51 0.42 0.35 0.35 0.33 0.27 0.35 0.34
0.00 0.00 0.00 0.00 0.00 0.00 0.01 0.04 0.01 0.00 0.04 0.06 0.14 0.10 0.26 0.09 0.11 0.04 0.00 0.00 0.00 0.01 0.03 0.20 0.39 0.12 0.09 0.04 0.03 0.09 0.10 0.12 0.17 0.32 0.53 0.77 0.82 0.86 0.70 0.55 0.54 0.43 0.39 0.38
0.00 0.00 0.00 0.00 0.00 0.00 0.01 0.01 0.00 0.00 0.07 0.08 0.10 0.05 0.44 0.17 0.24 0.23 0.01 0.00 0.00 0.00 0.00 0.00 0.04 0.09 0.07 0.06 0.02 0.13 0.21 0.15 0.15 0.22 0.31 0.41 0.58 0.78 0.91 0.79 0.50 0.45 0.50 0.42
0.00 0.00 0.00 0.00 0.00 0.00 0.00 0.01 0.00 0.01 0.05 0.03 0.02 0.06 0.27 0.06 0.04 0.03 0.00 0.00 0.00 0.00 0.00 0.00 0.00 0.01 0.01 0.01 0.02 0.10 0.18 0.17 0.33 0.33 0.30 0.36 0.43 0.52 0.64 0.63 0.33 0.28 0.25 0.23
0.00 0.00 0.00 0.00 0.00 0.01 0.00 0.00 0.00 0.01 0.02 0.06 0.05 0.04 0.16 0.10 0.01 0.00 0.00 0.00 0.00 0.00 0.00 0.00 0.00 0.00 0.00 0.00 0.02 0.08 0.19 0.15 0.26 0.45 0.53 0.50 0.59 0.69 0.52 0.43 0.56 0.40 0.20 0.15
0.00 0.00 0.00 0.00 0.01 0.01 0.00 0.00 0.00 0.02 0.03 0.05 0.01 0.00 0.00 0.01 0.01 0.00 0.00 0.00 0.00 0.00 0.00 0.00 0.00 0.00 0.00 0.00 0.01 0.04 0.05 0.06 0.20 0.32 0.56 0.43 0.39 0.51 0.66 0.74 0.66 0.52 0.30 0.20
0.00 0.00 0.00 0.00 0.00 0.00 0.00 0.00 0.01 0.00 0.02 0.07 0.03 0.01 0.00 0.00 0.00 0.00 0.00 0.00 0.00 0.00 0.00 0.00 0.00 0.00 0.00 0.01 0.04 0.05 0.07 0.14 0.06 0.08 0.07 0.11 0.10 0.12 0.12 0.15 0.18 0.25 0.36 0.32
0.00 0.00 0.01 0.00 0.00 0.00 0.01 0.01 0.00 0.00 0.00 0.01 0.00 0.00 0.00 0.00 0.00 0.00 0.00 0.00 0.00 0.00 0.00 0.00 0.00 0.00 0.00 0.01 0.03 0.07 0.07 0.11 0.03 0.08 0.09 0.05 0.02 0.01 0.01 0.01 0.01 0.01 0.03 0.07
0.01 0.00 0.00 0.00 0.00 0.01 0.00 0.00 0.00 0.00 0.00 0.00 0.00 0.00 0.00 0.00 0.00 0.00 0.00 0.00 0.00 0.00 0.00 0.01 0.00 0.00 0.00 0.01 0.01 0.04 0.07 0.09 0.07 0.03 0.02 0.02 0.01 0.01 0.02 0.00 0.00 0.00 0.02 0.02

GFSCGP_prec_precacc12_147.txt.gz
Total_Precipitation_Accumulation
0.00 0.00 0.00 0.00 0.00 0.00 0.00 0.00 0.01 0.11 0.19 0.08 0.01 0.04 0.02 0.00 0.00 0.00 0.00 0.01 0.04 0.05 0.02 0.01 0.02 0.01 0.00 0.00 0.02 0.03 0.01 0.03 0.03 0.01 0.02 0.07 0.00 0.00 0.00 0.00 0.00 0.07 0.17 0.03
0.00 0.00 0.00 0.00 0.00 0.00 0.00 0.00 0.00 0.10 0.09 0.06 0.01 0.01 0.03 0.01 0.00 0.00 0.01 0.02 0.03 0.04 0.09 0.01 0.00 0.01 0.00 0.00 0.00 0.03 0.04 0.03 0.01 0.00 0.00 0.03 0.03 0.00 0.00 0.00 0.02 0.04 0.03 0.01
0.00 0.00 0.00 0.00 0.00 0.00 0.00 0.00 0.00 0.03 0.01 0.01 0.02 0.04 0.05 0.09 0.05 0.00 0.00 0.01 0.01 0.03 0.06 0.10 0.02 0.00 0.00 0.00 0.00 0.00 0.03 0.03 0.01 0.00 0.00 0.03 0.02 0.01 0.03 0.01 0.02 0.00 0.00 0.00
0.00 0.00 0.00 0.00 0.00 0.00 0.00 0.00 0.00 0.00 0.00 0.00 0.01 0.03 0.02 0.05 0.11 0.07 0.01 0.00 0.01 0.02 0.14 0.08 0.02 0.01 0.00 0.00 0.00 0.00 0.01 0.05 0.05 0.02 0.00 0.00 0.00 0.00 0.00 0.00 0.01 0.00 0.00 0.01
0.00 0.00 0.00 0.00 0.00 0.00 0.00 0.00 0.00 0.00 0.00 0.00 0.00 0.00 0.06 0.32 0.25 0.12 0.02 0.00 0.02 0.04 0.10 0.07 0.05 0.02 0.01 0.00 0.00 0.00 0.01 0.06 0.07 0.06 0.03 0.02 0.00 0.00 0.00 0.00 0.00 0.00 0.00 0.01
0.00 0.00 0.00 0.00 0.00 0.00 0.00 0.00 0.00 0.00 0.00 0.00 0.00 0.01 0.17 0.40 0.24 0.11 0.07 0.04 0.01 0.02 0.01 0.03 0.15 0.08 0.06 0.00 0.00 0.00 0.01 0.05 0.05 0.05 0.03 0.01 0.03 0.01 0.01 0.01 0.00 0.00 0.00 0.01
0.00 0.00 0.00 0.00 0.00 0.00 0.00 0.00 0.00 0.00 0.00 0.00 0.00 0.02 0.09 0.06 0.05 0.02 0.08 0.07 0.03 0.01 0.01 0.04 0.07 0.04 0.03 0.03 0.03 0.00 0.00 0.01 0.02 0.01 0.02 0.00 0.03 0.03 0.04 0.02 0.00 0.00 0.01 0.00
0.00 0.00 0.00 0.00 0.00 0.00 0.00 0.00 0.00 0.01 0.03 0.05 0.01 0.06 0.12 0.12 0.04 0.03 0.04 0.10 0.11 0.04 0.01 0.03 0.03 0.05 0.01 0.00 0.00 0.00 0.00 0.00 0.01 0.02 0.04 0.07 0.03 0.05 0.06 0.01 0.01 0.00 0.00 0.01
0.00 0.00 0.00 0.00 0.00 0.00 0.00 0.00 0.00 0.00 0.00 0.02 0.02 0.08 0.04 0.05 0.01 0.03 0.07 0.15 0.13 0.04 0.02 0.02 0.02 0.02 0.00 0.00 0.00 0.00 0.00 0.00 0.00 0.00 0.04 0.03 0.02 0.03 0.02 0.02 0.02 0.01 0.01 0.01
0.00 0.00 0.00 0.00 0.00 0.00 0.00 0.00 0.00 0.00 0.00 0.03 0.16 0.42 0.21 0.10 0.42 0.12 0.13 0.18 0.13 0.09 0.03 0.02 0.00 0.05 0.02 0.00 0.01 0.02 0.00 0.00 0.00 0.00 0.00 0.00 0.00 0.00 0.05 0.08 0.12 0.03 0.02 0.02
0.00 0.00 0.00 0.00 0.00 0.00 0.00 0.00 0.00 0.00 0.01 0.05 0.19 0.36 0.58 0.19 0.47 0.39 0.27 0.14 0.11 0.07 0.04 0.02 0.02 0.02 0.09 0.04 0.01 0.03 0.00 0.00 0.00 0.00 0.00 0.01 0.01 0.00 0.05 0.07 0.07 0.04 0.04 0.05
0.00 0.00 0.00 0.01 0.01 0.00 0.00 0.01 0.01 0.01 0.15 0.15 0.11 0.19 0.33 0.20 0.33 0.48 1.18 0.54 0.42 0.15 0.03 0.07 0.05 0.07 0.06 0.18 0.07 0.15 0.09 0.01 0.00 0.00 0.00 0.00 0.01 0.02 0.03 0.02 0.02 0.02 0.02 0.04
0.00 0.00 0.00 0.00 0.05 0.02 0.00 0.00 0.00 0.00 0.00 0.03 0.06 0.08 0.04 0.11 0.49 0.75 1.39 1.21 0.47 0.47 0.22 0.14 0.12 0.16 0.20 0.23 0.37 0.39 0.35 0.27 0.22 0.09 0.01 0.01 0.00 0.00 0.01 0.03 0.02 0.04 0.03 0.05
0.00 0.00 0.00 0.00 0.03 0.04 0.00 0.01 0.00 0.00 0.02 0.00 0.01 0.04 0.12 0.33 0.39 0.22 0.37 1.09 0.81 0.47 0.62 0.34 0.49 0.87 0.90 0.85 1.00 1.39 1.01 0.55 0.41 0.26 0.15 0.07 0.02 0.00 0.00 0.00 0.01 0.08 0.08 0.10
0.00 0.00 0.00 0.00 0.00 0.00 0.00 0.00 0.02 0.01 0.01 0.02 0.01 0.03 0.48 0.28 0.07 0.01 0.08 0.22 0.32 0.38 0.36 0.25 0.32 0.53 1.33 1.53 1.82 1.88 2.12 1.44 0.71 0.43 0.24 0.11 0.08 0.06 0.05 0.05 0.05 0.06 0.12 0.14
0.00 0.00 0.00 0.00 0.00 0.00 0.00 0.00 0.01 0.04 0.12 0.06 0.04 0.08 0.14 0.03 0.01 0.04 0.09 0.26 0.31 0.24 0.12 0.20 0.30 0.25 0.51 0.84 1.04 1.60 2.79 3.31 1.89 0.89 0.39 0.25 0.20 0.14 0.12 0.14 0.18 0.17 0.14 0.11
0.00 0.00 0.00 0.00 0.00 0.00 0.00 0.00 0.01 0.00 0.01 0.01 0.01 0.27 0.30 0.29 0.07 0.09 0.12 0.13 0.15 0.27 0.19 0.08 0.15 0.16 0.09 0.15 0.21 0.22 0.61 1.66 2.15 2.24 1.45 0.61 0.37 0.26 0.20 0.18 0.28 0.23 0.24 0.36
0.00 0.00 0.00 0.00 0.00 0.01 0.01 0.05 0.01 0.01 0.01 0.11 0.18 0.16 0.28 0.15 0.05 0.02 0.00 0.04 0.11 0.10 0.10 0.04 0.05 0.02 0.00 0.00 0.03 0.05 0.12 0.23 0.48 1.09 1.61 1.54 0.58 0.46 0.35 0.36 0.32 0.24 0.29 0.20
0.00 0.00 0.00 0.00 0.00 0.00 0.00 0.04 0.01 0.00 0.04 0.06 0.14 0.10 0.26 0.09 0.11 0.03 0.00 0.00 0.07 0.11 0.09 0.10 0.10 0.04 0.00 0.00 0.01 0.00 0.01 0.04 0.11 0.26 0.53 0.88 0.91 0.88 0.69 0.57 0.51 0.39 0.35 0.30
0.00 0.00 0.00 0.00 0.00 0.00 0.00 0.01 0.00 0.00 0.07 0.08 0.09 0.05 0.44 0.17 0.21 0.15 0.01 0.00 0.00 0.03 0.03 0.01 0.00 0.03 0.02 0.01 0.00 0.00 0.01 0.01 0.01 0.06 0.17 0.31 0.57 0.81 0.91 0.78 0.56 0.48 0.55 0.43
0.00 0.00 0.00 0.00 0.00 0.00 0.00 0.01 0.00 0.01 0.05 0.03 0.02 0.06 0.27 0.06 0.02 0.02 0.00 0.00 0.00 0.00 0.00 0.00 0.00 0.00 0.00 0.01 0.01 0.03 0.04 0.01 0.05 0.09 0.06 0.16 0.32 0.50 0.67 0.74 0.51 0.38 0.37 0.36
0.00 0.00 0.00 0.00 0.00 0.01 0.00 0.00 0.00 0.01 0.02 0.06 0.05 0.04 0.16 0.10 0.01 0.01 0.00 0.00 0.00 0.00 0.00 0.00 0.00 0.00 0.00 0.00 0.01 0.02 0.07 0.05 0.08 0.10 0.21 0.27 0.43 0.61 0.50 0.47 0.74 0.73 0.45 0.39
0.00 0.00 0.00 0.00 0.01 0.01 0.00 0.00 0.00 0.02 0.03 0.05 0.01 0.00 0.00 0.01 0.01 0.00 0.00 0.00 0.00 0.00 0.00 0.00 0.00 0.00 0.00 0.00 0.01 0.03 0.02 0.02 0.08 0.11 0.34 0.33 0.29 0.42 0.64 0.73 0.67 0.56 0.54 0.47
0.00 0.00 0.00 0.00 0.00 0.00 0.00 0.00 0.01 0.00 0.02 0.07 0.03 0.01 0.00 0.00 0.01 0.00 0.00 0.00 0.00 0.00 0.00 0.00 0.00 0.00 0.00 0.00 0.01 0.02 0.05 0.04 0.05 0.10 0.05 0.06 0.07 0.11 0.12 0.14 0.18 0.25 0.37 0.43
0.00 0.00 0.00 0.00 0.00 0.00 0.01 0.01 0.00 0.00 0.00 0.01 0.00 0.00 0.00 0.01 0.01 0.01 0.00 0.00 0.00 0.00 0.00 0.00 0.00 0.00 0.00 0.00 0.01 0.03 0.05 0.05 0.02 0.06 0.07 0.04 0.01 0.01 0.01 0.01 0.01 0.01 0.02 0.08
0.01 0.00 0.00 0.00 0.00 0.01 0.00 0.00 0.00 0.00 0.00 0.00 0.00 0.00 0.00 0.00 0.00 0.00 0.00 0.00 0.00 0.00 0.00 0.01 0.00 0.00 0.00 0.00 0.00 0.02 0.04 0.06 0.05 0.02 0.02 0.02 0.01 0.00 0.01 0.00 0.00 0.00 0.00 0.00